Time,TemperatureF,DewpointF,PressureIn,WindDirection,WindDirectionDegrees,WindSpeedMPH,WindSpeedGustMPH,Humidity,HourlyPrecipIn,Conditions,Clouds,dailyrainin,SoftwareType,DateUTC
2013-11-30 00:00:00,32.9,24.9,30.43,WSW,242,6.0,11.0,72,0.00,,CLR,0.00,VWS V14.01,2013-11-30 06:00:00,
2013-11-30 00:05:00,32.8,24.8,30.43,SSE,163,4.0,11.0,72,0.00,,CLR,0.00,VWS V14.01,2013-11-30 06:05:00,
2013-11-30 00:10:00,32.8,24.8,30.43,SW,231,2.0,9.0,72,0.00,,CLR,0.00,VWS V14.01,2013-11-30 06:10:00,
2013-11-30 00:16:00,32.8,24.8,30.42,WSW,243,3.0,9.0,72,0.00,,CLR,0.00,VWS V14.01,2013-11-30 06:16:00,
2013-11-30 00:20:00,32.8,24.8,30.43,South,188,4.0,13.0,72,0.00,,CLR,0.00,VWS V14.01,2013-11-30 06:20:00,
2013-11-30 00:21:00,32.8,24.8,30.42,SW,215,2.0,9.0,72,0.00,,CLR,0.00,VWS V14.01,2013-11-30 06:21:00,
2013-11-30 00:26:00,32.8,24.8,30.42,SW,214,5.0,12.0,72,0.00,,CLR,0.00,VWS V14.01,2013-11-30 06:26:00,
2013-11-30 00:30:00,32.8,25.1,30.42,WSW,246,5.0,12.0,73,0.00,,CLR,0.00,VWS V14.01,2013-11-30 06:30:00,
2013-11-30 00:31:00,32.8,25.1,30.42,SSE,156,4.0,8.0,73,0.00,,CLR,0.00,VWS V14.01,2013-11-30 06:31:00,
2013-11-30 00:36:00,32.8,25.1,30.42,SSW,202,7.0,10.0,73,0.00,,CLR,0.00,VWS V14.01,2013-11-30 06:36:00,
2013-11-30 00:40:00,32.8,25.1,30.42,SW,228,1.0,10.0,73,0.00,,CLR,0.00,VWS V14.01,2013-11-30 06:40:00,
2013-11-30 00:41:00,32.8,25.1,30.42,SW,217,3.0,10.0,73,0.00,,CLR,0.00,VWS V14.01,2013-11-30 06:41:00,
2013-11-30 00:46:00,32.8,25.1,30.42,South,191,7.0,10.0,73,0.00,,CLR,0.00,VWS V14.01,2013-11-30 06:46:00,
2013-11-30 00:50:00,32.8,25.1,30.42,SW,235,2.0,10.0,73,0.00,,CLR,0.00,VWS V14.01,2013-11-30 06:50:00,
2013-11-30 00:51:00,32.8,25.1,30.42,SW,217,2.0,7.0,73,0.00,,CLR,0.00,VWS V14.01,2013-11-30 06:51:00,
2013-11-30 00:56:00,32.9,25.2,30.42,SW,215,2.0,7.0,73,0.00,,CLR,0.00,VWS V14.01,2013-11-30 06:56:00,
2013-11-30 01:00:00,32.9,25.2,30.42,SSW,197,4.0,7.0,73,0.00,,CLR,0.00,VWS V14.01,2013-11-30 07:00:00,
2013-11-30 01:01:00,32.9,25.5,30.41,WSW,239,1.0,8.0,74,0.00,,CLR,0.00,VWS V14.01,2013-11-30 07:01:00,
2013-11-30 01:06:00,32.8,25.4,30.41,SSW,199,5.0,8.0,74,0.00,,CLR,0.00,VWS V14.01,2013-11-30 07:06:00,
2013-11-30 01:10:00,32.9,25.5,30.42,SSW,198,4.0,9.0,74,0.00,,CLR,0.00,VWS V14.01,2013-11-30 07:10:00,
2013-11-30 01:11:00,32.9,25.5,30.42,WSW,242,5.0,7.0,74,0.00,,CLR,0.00,VWS V14.01,2013-11-30 07:11:00,
2013-11-30 01:16:00,32.9,25.5,30.41,WSW,242,8.0,11.0,74,0.00,,CLR,0.00,VWS V14.01,2013-11-30 07:16:00,
2013-11-30 01:20:00,32.9,25.5,30.41,SW,217,3.0,11.0,74,0.00,,CLR,0.00,VWS V14.01,2013-11-30 07:20:00,
2013-11-30 01:21:00,32.9,25.5,30.41,SSE,162,4.0,10.0,74,0.00,,CLR,0.00,VWS V14.01,2013-11-30 07:21:00,
2013-11-30 01:26:00,32.8,25.4,30.41,SW,235,4.0,12.0,74,0.00,,CLR,0.00,VWS V14.01,2013-11-30 07:26:00,
2013-11-30 01:30:00,32.9,25.5,30.40,SSW,207,5.0,12.0,74,0.00,,CLR,0.00,VWS V14.01,2013-11-30 07:30:00,
2013-11-30 01:32:00,32.9,25.5,30.40,SSW,197,5.0,7.0,74,0.00,,CLR,0.00,VWS V14.01,2013-11-30 07:32:00,
2013-11-30 01:37:00,32.9,25.5,30.41,WSW,245,1.0,9.0,74,0.00,,CLR,0.00,VWS V14.01,2013-11-30 07:37:00,
2013-11-30 01:40:00,32.9,25.5,30.40,SW,231,5.0,9.0,74,0.00,,CLR,0.00,VWS V14.01,2013-11-30 07:40:00,
2013-11-30 01:42:00,32.8,25.4,30.41,SW,231,1.0,9.0,74,0.00,,CLR,0.00,VWS V14.01,2013-11-30 07:42:00,
2013-11-30 01:47:00,32.7,25.7,30.41,SSW,205,2.0,9.0,75,0.00,,CLR,0.00,VWS V14.01,2013-11-30 07:47:00,
2013-11-30 01:50:00,32.7,25.7,30.41,SW,214,2.0,9.0,75,0.00,,CLR,0.00,VWS V14.01,2013-11-30 07:50:00,
2013-11-30 01:52:00,32.7,25.7,30.41,SSW,199,4.0,7.0,75,0.00,,CLR,0.00,VWS V14.01,2013-11-30 07:52:00,
2013-11-30 01:57:00,32.6,25.6,30.40,SSW,204,5.0,8.0,75,0.00,,CLR,0.00,VWS V14.01,2013-11-30 07:57:00,
2013-11-30 02:00:00,32.7,25.7,30.40,SW,215,3.0,8.0,75,0.00,,CLR,0.00,VWS V14.01,2013-11-30 08:00:00,
2013-11-30 02:02:00,32.5,25.5,30.40,WSW,237,5.0,8.0,75,0.00,,CLR,0.00,VWS V14.01,2013-11-30 08:02:00,
2013-11-30 02:07:00,32.5,25.5,30.40,SSW,212,1.0,9.0,75,0.00,,CLR,0.00,VWS V14.01,2013-11-30 08:07:00,
2013-11-30 02:10:00,32.5,25.5,30.40,SSW,193,2.0,9.0,75,0.00,,CLR,0.00,VWS V14.01,2013-11-30 08:10:00,
2013-11-30 02:12:00,32.4,25.7,30.40,South,173,3.0,8.0,76,0.00,,CLR,0.00,VWS V14.01,2013-11-30 08:12:00,
2013-11-30 02:17:00,32.3,25.6,30.40,South,188,4.0,9.0,76,0.00,,CLR,0.00,VWS V14.01,2013-11-30 08:17:00,
2013-11-30 02:20:00,32.3,25.6,30.40,South,190,4.0,9.0,76,0.00,,CLR,0.00,VWS V14.01,2013-11-30 08:20:00,
2013-11-30 02:22:00,32.2,25.5,30.40,South,175,2.0,6.0,76,0.00,,CLR,0.00,VWS V14.01,2013-11-30 08:22:00,
2013-11-30 02:27:00,32.2,25.8,30.40,SSE,158,3.0,9.0,77,0.00,,CLR,0.00,VWS V14.01,2013-11-30 08:27:00,
2013-11-30 02:30:00,32.2,25.8,30.40,SSE,149,2.0,9.0,77,0.00,,CLR,0.00,VWS V14.01,2013-11-30 08:30:00,
2013-11-30 02:32:00,32.1,25.7,30.40,South,179,1.0,5.0,77,0.00,,CLR,0.00,VWS V14.01,2013-11-30 08:32:00,
2013-11-30 02:37:00,32.1,25.7,30.40,SSW,198,2.0,6.0,77,0.00,,CLR,0.00,VWS V14.01,2013-11-30 08:37:00,
2013-11-30 02:40:00,32.1,25.7,30.40,SSW,198,2.0,6.0,77,0.00,,CLR,0.00,VWS V14.01,2013-11-30 08:40:00,
2013-11-30 02:42:00,32.2,25.8,30.40,SW,222,2.0,5.0,77,0.00,,CLR,0.00,VWS V14.01,2013-11-30 08:42:00,
2013-11-30 02:47:00,32.3,25.9,30.40,SSE,165,3.0,5.0,77,0.00,,CLR,0.00,VWS V14.01,2013-11-30 08:47:00,
2013-11-30 02:50:00,32.3,25.9,30.40,SSE,165,3.0,5.0,77,0.00,,CLR,0.00,VWS V14.01,2013-11-30 08:50:00,
2013-11-30 02:53:00,32.3,25.9,30.39,SSE,155,4.0,8.0,77,0.00,,CLR,0.00,VWS V14.01,2013-11-30 08:53:00,
2013-11-30 02:58:00,32.3,26.2,30.40,SW,228,1.0,2.0,78,0.00,,CLR,0.00,VWS V14.01,2013-11-30 08:58:00,
2013-11-30 03:00:00,32.2,26.1,30.40,SW,225,2.0,8.0,78,0.00,,CLR,0.00,VWS V14.01,2013-11-30 09:00:00,
2013-11-30 03:03:00,32.3,26.2,30.40,South,184,2.0,3.0,78,0.00,,CLR,0.00,VWS V14.01,2013-11-30 09:03:00,
2013-11-30 03:08:00,32.2,26.1,30.39,SSW,209,1.0,2.0,78,0.00,,CLR,0.00,VWS V14.01,2013-11-30 09:08:00,
2013-11-30 03:10:00,32.3,26.2,30.39,SSE,165,2.0,4.0,78,0.00,,CLR,0.00,VWS V14.01,2013-11-30 09:10:00,
2013-11-30 03:13:00,32.2,26.1,30.38,SSW,202,1.0,4.0,78,0.00,,CLR,0.00,VWS V14.01,2013-11-30 09:13:00,
2013-11-30 03:18:00,32.2,26.1,30.38,South,175,6.0,7.0,78,0.00,,CLR,0.00,VWS V14.01,2013-11-30 09:18:00,
2013-11-30 03:20:00,32.3,26.2,30.38,SW,215,3.0,6.0,78,0.00,,CLR,0.00,VWS V14.01,2013-11-30 09:20:00,
2013-11-30 03:23:00,32.3,26.2,30.37,SSE,167,5.0,7.0,78,0.00,,CLR,0.00,VWS V14.01,2013-11-30 09:23:00,
2013-11-30 03:28:00,32.3,26.2,30.37,WSW,239,4.0,6.0,78,0.00,,CLR,0.00,VWS V14.01,2013-11-30 09:28:00,
2013-11-30 03:30:00,32.3,26.2,30.37,South,187,6.0,7.0,78,0.00,,CLR,0.00,VWS V14.01,2013-11-30 09:30:00,
2013-11-30 03:33:00,32.5,26.7,30.37,SSW,195,2.0,8.0,79,0.00,,CLR,0.00,VWS V14.01,2013-11-30 09:33:00,
2013-11-30 03:38:00,32.5,26.4,30.37,SSW,204,2.0,3.0,78,0.00,,CLR,0.00,VWS V14.01,2013-11-30 09:38:00,
2013-11-30 03:40:00,32.5,26.4,30.37,SSW,203,3.0,8.0,78,0.00,,CLR,0.00,VWS V14.01,2013-11-30 09:40:00,
2013-11-30 03:43:00,32.6,26.8,30.36,WSW,249,2.0,7.0,79,0.00,,CLR,0.00,VWS V14.01,2013-11-30 09:43:00,
2013-11-30 03:48:00,32.6,26.8,30.36,SSE,167,4.0,6.0,79,0.00,,CLR,0.00,VWS V14.01,2013-11-30 09:48:00,
2013-11-30 03:50:00,32.6,26.8,30.36,South,169,2.0,7.0,79,0.00,,CLR,0.00,VWS V14.01,2013-11-30 09:50:00,
2013-11-30 03:53:00,32.6,26.8,30.36,SW,236,2.0,6.0,79,0.00,,CLR,0.00,VWS V14.01,2013-11-30 09:53:00,
2013-11-30 03:58:00,32.7,26.9,30.36,SW,235,1.0,4.0,79,0.00,,CLR,0.00,VWS V14.01,2013-11-30 09:58:00,
2013-11-30 04:00:00,32.7,26.9,30.36,South,183,4.0,6.0,79,0.00,,CLR,0.00,VWS V14.01,2013-11-30 10:00:00,
2013-11-30 04:03:00,32.7,26.9,30.36,SSW,207,1.0,6.0,79,0.00,,CLR,0.00,VWS V14.01,2013-11-30 10:03:00,
2013-11-30 04:08:00,32.7,26.9,30.35,South,181,2.0,6.0,79,0.00,,CLR,0.00,VWS V14.01,2013-11-30 10:08:00,
2013-11-30 04:10:00,32.7,26.9,30.35,SSW,197,2.0,6.0,79,0.00,,CLR,0.00,VWS V14.01,2013-11-30 10:10:00,
2013-11-30 04:13:00,32.8,27.0,30.35,SSW,198,6.0,6.0,79,0.00,,CLR,0.00,VWS V14.01,2013-11-30 10:13:00,
2013-11-30 04:18:00,32.8,27.0,30.35,SW,224,6.0,7.0,79,0.00,,CLR,0.00,VWS V14.01,2013-11-30 10:18:00,
2013-11-30 04:20:00,32.8,27.0,30.35,SSE,159,4.0,10.0,79,0.00,,CLR,0.00,VWS V14.01,2013-11-30 10:20:00,
2013-11-30 04:24:00,32.9,27.1,30.35,SSW,193,2.0,9.0,79,0.00,,CLR,0.00,VWS V14.01,2013-11-30 10:24:00,
2013-11-30 04:29:00,32.8,27.0,30.35,West,276,1.0,2.0,79,0.00,,CLR,0.00,VWS V14.01,2013-11-30 10:29:00,
2013-11-30 04:30:00,32.9,27.1,30.35,South,183,2.0,9.0,79,0.00,,CLR,0.00,VWS V14.01,2013-11-30 10:30:00,
2013-11-30 04:34:00,32.9,27.1,30.35,SSW,210,1.0,10.0,79,0.00,,CLR,0.00,VWS V14.01,2013-11-30 10:34:00,
2013-11-30 04:39:00,32.8,27.0,30.35,SE,124,1.0,4.0,79,0.00,,CLR,0.00,VWS V14.01,2013-11-30 10:39:00,
2013-11-30 04:40:00,32.9,27.1,30.35,SW,226,0.0,10.0,79,0.00,,CLR,0.00,VWS V14.01,2013-11-30 10:40:00,
2013-11-30 04:44:00,32.8,27.0,30.34,WSW,243,1.0,6.0,79,0.00,,CLR,0.00,VWS V14.01,2013-11-30 10:44:00,
2013-11-30 04:49:00,32.8,27.3,30.34,SW,215,3.0,3.0,80,0.00,,CLR,0.00,VWS V14.01,2013-11-30 10:49:00,
2013-11-30 04:50:00,32.8,27.0,30.34,West,274,2.0,6.0,79,0.00,,CLR,0.00,VWS V14.01,2013-11-30 10:50:00,
2013-11-30 04:54:00,32.8,27.3,30.34,South,170,1.0,5.0,80,0.00,,CLR,0.00,VWS V14.01,2013-11-30 10:54:00,
2013-11-30 04:59:00,32.7,27.2,30.34,WSW,257,1.0,3.0,80,0.00,,CLR,0.00,VWS V14.01,2013-11-30 10:59:00,
2013-11-30 05:00:00,32.7,27.2,30.34,SSW,200,2.0,7.0,80,0.00,,CLR,0.00,VWS V14.01,2013-11-30 11:00:00,
2013-11-30 05:04:00,32.7,27.2,30.34,SW,226,2.0,5.0,80,0.00,,CLR,0.00,VWS V14.01,2013-11-30 11:04:00,
2013-11-30 05:09:00,32.5,27.0,30.34,SW,235,3.0,8.0,80,0.00,,CLR,0.00,VWS V14.01,2013-11-30 11:09:00,
2013-11-30 05:10:00,32.5,27.0,30.34,SW,231,6.0,11.0,80,0.00,,CLR,0.00,VWS V14.01,2013-11-30 11:10:00,
2013-11-30 05:14:00,32.5,27.0,30.34,SW,236,1.0,9.0,80,0.00,,CLR,0.00,VWS V14.01,2013-11-30 11:14:00,
2013-11-30 05:19:00,32.3,26.8,30.34,West,264,0.0,1.0,80,0.00,,CLR,0.00,VWS V14.01,2013-11-30 11:19:00,
2013-11-30 05:20:00,32.4,26.9,30.34,WSW,240,0.0,9.0,80,0.00,,CLR,0.00,VWS V14.01,2013-11-30 11:20:00,
2013-11-30 05:24:00,32.1,26.6,30.34,South,173,2.0,4.0,80,0.00,,CLR,0.00,VWS V14.01,2013-11-30 11:24:00,
2013-11-30 05:29:00,31.8,26.6,30.34,SSW,200,0.0,3.0,81,0.00,,CLR,0.00,VWS V14.01,2013-11-30 11:29:00,
2013-11-30 05:30:00,31.9,26.7,30.34,SW,225,0.0,7.0,81,0.00,,CLR,0.00,VWS V14.01,2013-11-30 11:30:00,
2013-11-30 05:34:00,31.7,26.8,30.34,South,191,3.0,5.0,82,0.00,,CLR,0.00,VWS V14.01,2013-11-30 11:34:00,
2013-11-30 05:39:00,31.6,26.8,30.34,SSW,198,3.0,6.0,82,0.00,,CLR,0.00,VWS V14.01,2013-11-30 11:39:00,
2013-11-30 05:40:00,31.7,26.8,30.34,SSW,204,0.0,5.0,82,0.00,,CLR,0.00,VWS V14.01,2013-11-30 11:40:00,
2013-11-30 05:44:00,31.5,26.6,30.34,SSW,195,1.0,6.0,82,0.00,,CLR,0.00,VWS V14.01,2013-11-30 11:44:00,
2013-11-30 05:49:00,31.4,26.5,30.34,SW,228,2.0,6.0,82,0.00,,CLR,0.00,VWS V14.01,2013-11-30 11:49:00,
2013-11-30 05:50:00,31.4,26.5,30.34,South,184,6.0,6.0,82,0.00,,CLR,0.00,VWS V14.01,2013-11-30 11:50:00,
2013-11-30 05:54:00,31.3,26.8,30.34,SSW,203,2.0,6.0,83,0.00,,CLR,0.00,VWS V14.01,2013-11-30 11:54:00,
2013-11-30 06:00:00,31.2,26.4,30.34,South,173,1.0,4.0,82,0.00,,CLR,0.00,VWS V14.01,2013-11-30 12:00:00,
2013-11-30 06:05:00,31.0,26.5,30.33,South,177,5.0,5.0,83,0.00,,CLR,0.00,VWS V14.01,2013-11-30 12:05:00,
2013-11-30 06:10:00,30.9,26.4,30.33,SSW,210,5.0,5.0,83,0.00,,CLR,0.00,VWS V14.01,2013-11-30 12:10:00,
2013-11-30 06:15:00,31.0,26.7,30.33,SSW,212,1.0,7.0,84,0.00,,CLR,0.00,VWS V14.01,2013-11-30 12:15:00,
2013-11-30 06:20:00,31.0,26.7,30.33,SE,131,2.0,4.0,84,0.00,,CLR,0.00,VWS V14.01,2013-11-30 12:20:00,
2013-11-30 06:25:00,31.1,26.8,30.33,SW,218,4.0,9.0,84,0.00,,CLR,0.00,VWS V14.01,2013-11-30 12:25:00,
2013-11-30 06:30:00,31.1,26.8,30.33,SW,228,1.0,6.0,84,0.00,,CLR,0.00,VWS V14.01,2013-11-30 12:30:00,
2013-11-30 06:35:00,31.1,26.8,30.33,West,278,2.0,7.0,84,0.00,,CLR,0.00,VWS V14.01,2013-11-30 12:35:00,
2013-11-30 06:40:00,31.1,26.8,30.33,WSW,248,2.0,2.0,84,0.00,,CLR,0.00,VWS V14.01,2013-11-30 12:40:00,
2013-11-30 06:45:00,31.2,26.9,30.33,West,262,3.0,7.0,84,0.00,,CLR,0.00,VWS V14.01,2013-11-30 12:45:00,
2013-11-30 06:50:00,31.2,26.9,30.32,WSW,248,0.0,3.0,84,0.00,,CLR,0.00,VWS V14.01,2013-11-30 12:50:00,
2013-11-30 06:55:00,31.2,27.2,30.32,SSW,207,0.0,6.0,85,0.00,,CLR,0.00,VWS V14.01,2013-11-30 12:55:00,
2013-11-30 07:00:00,31.3,27.0,30.32,SW,215,3.0,4.0,84,0.00,,CLR,0.00,VWS V14.01,2013-11-30 13:00:00,
2013-11-30 07:05:00,31.3,27.0,30.32,WSW,243,4.0,5.0,84,0.00,,CLR,0.00,VWS V14.01,2013-11-30 13:05:00,
2013-11-30 07:10:00,31.3,27.0,30.32,SW,231,3.0,4.0,84,0.00,,CLR,0.00,VWS V14.01,2013-11-30 13:10:00,
2013-11-30 07:15:00,31.3,27.0,30.32,SSW,205,3.0,5.0,84,0.00,,CLR,0.00,VWS V14.01,2013-11-30 13:15:00,
2013-11-30 07:20:00,31.3,27.3,30.32,WSW,245,1.0,4.0,85,0.00,,CLR,0.00,VWS V14.01,2013-11-30 13:20:00,
2013-11-30 07:25:00,31.4,27.4,30.32,SW,214,2.0,5.0,85,0.00,,CLR,0.00,VWS V14.01,2013-11-30 13:25:00,
2013-11-30 07:30:00,31.4,27.1,30.32,WSW,238,1.0,6.0,84,0.00,,CLR,0.00,VWS V14.01,2013-11-30 13:30:00,
2013-11-30 07:36:00,31.6,27.6,30.32,SW,215,1.0,6.0,85,0.00,,CLR,0.00,VWS V14.01,2013-11-30 13:36:00,
2013-11-30 07:40:00,31.6,27.3,30.32,SW,219,0.0,6.0,84,0.00,,CLR,0.00,VWS V14.01,2013-11-30 13:40:00,
2013-11-30 07:41:00,31.6,27.3,30.32,SW,233,1.0,4.0,84,0.00,,CLR,0.00,VWS V14.01,2013-11-30 13:41:00,
2013-11-30 07:46:00,31.8,27.5,30.32,SW,219,4.0,5.0,84,0.00,,CLR,0.00,VWS V14.01,2013-11-30 13:46:00,
2013-11-30 07:50:00,31.8,27.5,30.32,SSW,200,4.0,5.0,84,0.00,,CLR,0.00,VWS V14.01,2013-11-30 13:50:00,
2013-11-30 07:51:00,31.9,27.6,30.32,WSW,237,2.0,6.0,84,0.00,,CLR,0.00,VWS V14.01,2013-11-30 13:51:00,
2013-11-30 07:56:00,32.2,27.9,30.32,SSE,160,2.0,8.0,84,0.00,,CLR,0.00,VWS V14.01,2013-11-30 13:56:00,
2013-11-30 08:00:00,32.3,28.0,30.32,SSW,203,4.0,8.0,84,0.00,,CLR,0.00,VWS V14.01,2013-11-30 14:00:00,
2013-11-30 08:01:00,32.5,28.2,30.31,WSW,238,2.0,4.0,84,0.00,,CLR,0.00,VWS V14.01,2013-11-30 14:01:00,
2013-11-30 08:06:00,32.7,28.1,30.32,SW,219,3.0,6.0,83,0.00,,CLR,0.00,VWS V14.01,2013-11-30 14:06:00,
2013-11-30 08:10:00,32.8,28.2,30.32,SSW,212,4.0,6.0,83,0.00,,CLR,0.00,VWS V14.01,2013-11-30 14:10:00,
2013-11-30 08:11:00,33.0,28.4,30.31,West,263,3.0,7.0,83,0.00,,CLR,0.00,VWS V14.01,2013-11-30 14:11:00,
2013-11-30 08:17:00,33.3,28.7,30.31,South,173,4.0,7.0,83,0.00,,CLR,0.00,VWS V14.01,2013-11-30 14:17:00,
2013-11-30 08:20:00,33.3,28.7,30.31,SSW,205,1.0,7.0,83,0.00,,CLR,0.00,VWS V14.01,2013-11-30 14:20:00,
2013-11-30 08:22:00,33.6,28.7,30.31,South,191,8.0,10.0,82,0.00,,CLR,0.00,VWS V14.01,2013-11-30 14:22:00,
2013-11-30 08:27:00,33.9,29.0,30.31,South,181,4.0,10.0,82,0.00,,CLR,0.00,VWS V14.01,2013-11-30 14:27:00,
2013-11-30 08:30:00,33.9,29.0,30.31,SSE,165,4.0,10.0,82,0.00,,CLR,0.00,VWS V14.01,2013-11-30 14:30:00,
2013-11-30 08:32:00,34.3,29.1,30.31,SSE,160,1.0,7.0,81,0.00,,CLR,0.00,VWS V14.01,2013-11-30 14:32:00,
2013-11-30 08:37:00,34.5,29.3,30.31,WSW,238,2.0,7.0,81,0.00,,CLR,0.00,VWS V14.01,2013-11-30 14:37:00,
2013-11-30 08:40:00,34.5,29.3,30.31,WSW,238,2.0,7.0,81,0.00,,CLR,0.00,VWS V14.01,2013-11-30 14:40:00,
2013-11-30 08:42:00,35.0,29.8,30.30,SW,219,4.0,7.0,81,0.00,,CLR,0.00,VWS V14.01,2013-11-30 14:42:00,
2013-11-30 08:47:00,35.3,29.8,30.30,SW,233,3.0,7.0,80,0.00,,CLR,0.00,VWS V14.01,2013-11-30 14:47:00,
2013-11-30 08:50:00,35.3,29.8,30.30,SW,233,3.0,7.0,80,0.00,,CLR,0.00,VWS V14.01,2013-11-30 14:50:00,
2013-11-30 08:52:00,35.6,30.0,30.30,SW,224,1.0,7.0,80,0.00,,CLR,0.00,VWS V14.01,2013-11-30 14:52:00,
2013-11-30 08:58:00,36.0,30.1,30.30,SW,225,4.0,4.0,79,0.00,,CLR,0.00,VWS V14.01,2013-11-30 14:58:00,
2013-11-30 09:00:00,36.0,30.1,30.30,WSW,253,5.0,7.0,79,0.00,,CLR,0.00,VWS V14.01,2013-11-30 15:00:00,
2013-11-30 09:03:00,36.3,30.4,30.30,SW,218,3.0,5.0,79,0.00,,CLR,0.00,VWS V14.01,2013-11-30 15:03:00,
2013-11-30 09:08:00,36.6,30.4,30.29,West,270,1.0,1.0,78,0.00,,CLR,0.00,VWS V14.01,2013-11-30 15:08:00,
2013-11-30 09:10:00,36.6,30.4,30.29,SSW,210,1.0,8.0,78,0.00,,CLR,0.00,VWS V14.01,2013-11-30 15:10:00,
2013-11-30 09:13:00,36.9,30.7,30.29,SSW,212,2.0,7.0,78,0.00,,CLR,0.00,VWS V14.01,2013-11-30 15:13:00,
2013-11-30 09:18:00,37.3,30.8,30.29,SW,225,3.0,5.0,77,0.00,,CLR,0.00,VWS V14.01,2013-11-30 15:18:00,
2013-11-30 09:20:00,37.3,31.1,30.29,WSW,238,5.0,9.0,78,0.00,,CLR,0.00,VWS V14.01,2013-11-30 15:20:00,
2013-11-30 09:23:00,37.6,31.1,30.29,SSW,197,2.0,7.0,77,0.00,,CLR,0.00,VWS V14.01,2013-11-30 15:23:00,
2013-11-30 09:28:00,38.1,31.5,30.29,SW,219,3.0,5.0,77,0.00,,CLR,0.00,VWS V14.01,2013-11-30 15:28:00,
2013-11-30 09:30:00,38.1,31.5,30.29,WSW,240,2.0,8.0,77,0.00,,CLR,0.00,VWS V14.01,2013-11-30 15:30:00,
2013-11-30 09:33:00,38.6,31.7,30.29,South,184,4.0,6.0,76,0.00,,CLR,0.00,VWS V14.01,2013-11-30 15:33:00,
2013-11-30 09:38:00,39.0,31.8,30.29,WSW,243,1.0,7.0,75,0.00,,CLR,0.00,VWS V14.01,2013-11-30 15:38:00,
2013-11-30 09:40:00,38.9,31.7,30.29,SSW,200,7.0,10.0,75,0.00,,CLR,0.00,VWS V14.01,2013-11-30 15:40:00,
2013-11-30 09:43:00,39.5,31.9,30.29,WSW,256,2.0,7.0,74,0.00,,CLR,0.00,VWS V14.01,2013-11-30 15:43:00,
2013-11-30 09:48:00,40.1,32.2,30.29,WSW,238,4.0,4.0,73,0.00,,CLR,0.00,VWS V14.01,2013-11-30 15:48:00,
2013-11-30 09:50:00,40.0,32.1,30.29,West,274,2.0,7.0,73,0.00,,CLR,0.00,VWS V14.01,2013-11-30 15:50:00,
2013-11-30 09:53:00,40.4,32.1,30.29,WSW,251,5.0,8.0,72,0.00,,CLR,0.00,VWS V14.01,2013-11-30 15:53:00,
2013-11-30 09:58:00,40.9,32.6,30.28,WSW,243,2.0,3.0,72,0.00,,CLR,0.00,VWS V14.01,2013-11-30 15:58:00,
2013-11-30 10:00:00,40.8,32.5,30.28,West,274,3.0,8.0,72,0.00,,CLR,0.00,VWS V14.01,2013-11-30 16:00:00,
2013-11-30 10:03:00,41.2,32.2,30.28,West,264,5.0,5.0,70,0.00,,CLR,0.00,VWS V14.01,2013-11-30 16:03:00,
2013-11-30 10:09:00,41.5,32.5,30.28,WNW,283,3.0,5.0,70,0.00,,CLR,0.00,VWS V14.01,2013-11-30 16:09:00,
2013-11-30 10:10:00,41.4,32.4,30.28,SW,222,2.0,5.0,70,0.00,,CLR,0.00,VWS V14.01,2013-11-30 16:10:00,
2013-11-30 10:14:00,41.6,32.2,30.28,South,180,2.0,7.0,69,0.00,,CLR,0.00,VWS V14.01,2013-11-30 16:14:00,
2013-11-30 10:19:00,42.1,32.7,30.27,WSW,256,5.0,6.0,69,0.00,,CLR,0.00,VWS V14.01,2013-11-30 16:19:00,
2013-11-30 10:20:00,41.9,32.5,30.27,SW,214,3.0,7.0,69,0.00,,CLR,0.00,VWS V14.01,2013-11-30 16:20:00,
2013-11-30 10:24:00,42.3,32.5,30.27,WSW,240,2.0,6.0,68,0.00,,CLR,0.00,VWS V14.01,2013-11-30 16:24:00,
2013-11-30 10:29:00,42.4,32.2,30.27,NW,319,2.0,5.0,67,0.00,,CLR,0.00,VWS V14.01,2013-11-30 16:29:00,
2013-11-30 10:30:00,42.4,32.6,30.27,WSW,242,2.0,6.0,68,0.00,,CLR,0.00,VWS V14.01,2013-11-30 16:30:00,
2013-11-30 10:34:00,42.7,32.5,30.27,SW,236,2.0,8.0,67,0.00,,CLR,0.00,VWS V14.01,2013-11-30 16:34:00,
2013-11-30 10:39:00,42.8,32.6,30.26,WSW,252,6.0,6.0,67,0.00,,CLR,0.00,VWS V14.01,2013-11-30 16:39:00,
2013-11-30 10:40:00,42.7,32.5,30.26,West,266,2.0,8.0,67,0.00,,CLR,0.00,VWS V14.01,2013-11-30 16:40:00,
2013-11-30 10:44:00,43.0,32.4,30.26,South,169,2.0,7.0,66,0.00,,CLR,0.00,VWS V14.01,2013-11-30 16:44:00,
2013-11-30 10:49:00,43.3,32.7,30.26,SW,233,7.0,8.0,66,0.00,,CLR,0.00,VWS V14.01,2013-11-30 16:49:00,
2013-11-30 10:50:00,43.1,32.9,30.26,SW,225,3.0,7.0,67,0.00,,CLR,0.00,VWS V14.01,2013-11-30 16:50:00,
2013-11-30 10:54:00,43.8,33.2,30.25,SW,221,5.0,8.0,66,0.00,,CLR,0.00,VWS V14.01,2013-11-30 16:54:00,
2013-11-30 10:59:00,44.2,32.8,30.25,WSW,242,3.0,8.0,64,0.00,,CLR,0.00,VWS V14.01,2013-11-30 16:59:00,
2013-11-30 11:00:00,44.2,33.6,30.25,WSW,239,4.0,8.0,66,0.00,,CLR,0.00,VWS V14.01,2013-11-30 17:00:00,
2013-11-30 11:04:00,44.3,33.3,30.25,WSW,240,3.0,8.0,65,0.00,,CLR,0.00,VWS V14.01,2013-11-30 17:04:00,
2013-11-30 11:09:00,44.7,33.3,30.24,SSW,203,4.0,4.0,64,0.00,,CLR,0.00,VWS V14.01,2013-11-30 17:09:00,
2013-11-30 11:10:00,44.5,33.5,30.24,SSW,212,3.0,8.0,65,0.00,,CLR,0.00,VWS V14.01,2013-11-30 17:10:00,
2013-11-30 11:15:00,45.0,33.2,30.24,WSW,238,2.0,7.0,63,0.00,,CLR,0.00,VWS V14.01,2013-11-30 17:15:00,
2013-11-30 11:20:00,45.1,33.3,30.23,SSW,211,3.0,8.0,63,0.00,,CLR,0.00,VWS V14.01,2013-11-30 17:20:00,
2013-11-30 11:25:00,45.5,33.7,30.23,WSW,249,4.0,8.0,63,0.00,,CLR,0.00,VWS V14.01,2013-11-30 17:25:00,
2013-11-30 11:30:00,46.0,33.7,30.23,West,259,2.0,5.0,62,0.00,,CLR,0.00,VWS V14.01,2013-11-30 17:30:00,
2013-11-30 11:35:00,46.2,33.9,30.22,WNW,290,3.0,11.0,62,0.00,,CLR,0.00,VWS V14.01,2013-11-30 17:35:00,
2013-11-30 11:40:00,46.7,33.6,30.22,WSW,242,2.0,7.0,60,0.00,,CLR,0.00,VWS V14.01,2013-11-30 17:40:00,
2013-11-30 11:45:00,47.2,34.5,30.22,WSW,256,5.0,7.0,61,0.00,,CLR,0.00,VWS V14.01,2013-11-30 17:45:00,
2013-11-30 11:50:00,47.7,34.1,30.22,WNW,284,4.0,6.0,59,0.00,,CLR,0.00,VWS V14.01,2013-11-30 17:50:00,
2013-11-30 11:55:00,47.9,33.8,30.21,West,271,2.0,9.0,58,0.00,,CLR,0.00,VWS V14.01,2013-11-30 17:55:00,
2013-11-30 12:00:00,48.4,33.9,30.21,WSW,257,3.0,6.0,57,0.00,,CLR,0.00,VWS V14.01,2013-11-30 18:00:00,
2013-11-30 12:05:00,48.7,33.7,30.20,West,277,1.0,9.0,56,0.00,,CLR,0.00,VWS V14.01,2013-11-30 18:05:00,
2013-11-30 12:10:00,48.9,33.9,30.20,SW,227,5.0,5.0,56,0.00,,CLR,0.00,VWS V14.01,2013-11-30 18:10:00,
2013-11-30 12:15:00,49.3,34.3,30.20,SSE,165,2.0,9.0,56,0.00,,CLR,0.00,VWS V14.01,2013-11-30 18:15:00,
2013-11-30 12:20:00,49.5,34.0,30.19,SSW,195,3.0,8.0,55,0.00,,CLR,0.00,VWS V14.01,2013-11-30 18:20:00,
2013-11-30 12:25:00,49.5,33.6,30.19,SW,221,2.0,8.0,54,0.00,,CLR,0.00,VWS V14.01,2013-11-30 18:25:00,
2013-11-30 12:30:00,49.7,33.8,30.19,WSW,240,3.0,8.0,54,0.00,,CLR,0.00,VWS V14.01,2013-11-30 18:30:00,
2013-11-30 12:35:00,50.0,34.0,30.19,WNW,283,3.0,8.0,54,0.00,,CLR,0.00,VWS V14.01,2013-11-30 18:35:00,
2013-11-30 12:40:00,50.2,34.2,30.19,SW,215,2.0,6.0,54,0.00,,CLR,0.00,VWS V14.01,2013-11-30 18:40:00,
2013-11-30 12:45:00,50.6,34.1,30.18,West,264,2.0,6.0,53,0.00,,CLR,0.00,VWS V14.01,2013-11-30 18:45:00,
2013-11-30 12:50:00,50.8,34.3,30.18,SSW,209,3.0,6.0,53,0.00,,CLR,0.00,VWS V14.01,2013-11-30 18:50:00,
2013-11-30 12:51:00,51.0,34.0,30.18,SSW,211,3.0,7.0,52,0.00,,CLR,0.00,VWS V14.01,2013-11-30 18:51:00,
2013-11-30 12:56:00,51.2,34.7,30.18,NW,304,1.0,7.0,53,0.00,,CLR,0.00,VWS V14.01,2013-11-30 18:56:00,
2013-11-30 13:00:00,51.4,34.9,30.18,SW,222,1.0,7.0,53,0.00,,CLR,0.00,VWS V14.01,2013-11-30 19:00:00,
2013-11-30 13:01:00,51.7,34.7,30.18,WNW,300,3.0,4.0,52,0.00,,CLR,0.00,VWS V14.01,2013-11-30 19:01:00,
2013-11-30 13:06:00,51.8,34.3,30.17,WSW,253,3.0,6.0,51,0.00,,CLR,0.00,VWS V14.01,2013-11-30 19:06:00,
2013-11-30 13:10:00,51.7,34.2,30.17,WSW,245,2.0,6.0,51,0.00,,CLR,0.00,VWS V14.01,2013-11-30 19:10:00,
2013-11-30 13:11:00,51.6,34.6,30.17,WNW,293,2.0,6.0,52,0.00,,CLR,0.00,VWS V14.01,2013-11-30 19:11:00,
2013-11-30 13:16:00,51.2,34.2,30.17,SW,228,2.0,7.0,52,0.00,,CLR,0.00,VWS V14.01,2013-11-30 19:16:00,
2013-11-30 13:20:00,51.2,34.2,30.17,WSW,238,2.0,7.0,52,0.00,,CLR,0.00,VWS V14.01,2013-11-30 19:20:00,
2013-11-30 13:21:00,51.4,34.4,30.17,WSW,246,2.0,6.0,52,0.00,,CLR,0.00,VWS V14.01,2013-11-30 19:21:00,
2013-11-30 13:26:00,51.7,34.7,30.17,WNW,284,3.0,6.0,52,0.00,,CLR,0.00,VWS V14.01,2013-11-30 19:26:00,
2013-11-30 13:30:00,51.8,34.8,30.17,SW,233,3.0,6.0,52,0.00,,CLR,0.00,VWS V14.01,2013-11-30 19:30:00,
2013-11-30 13:31:00,51.9,34.8,30.16,WNW,291,4.0,7.0,52,0.00,,CLR,0.00,VWS V14.01,2013-11-30 19:31:00,
2013-11-30 13:36:00,52.0,34.9,30.16,West,276,1.0,7.0,52,0.00,,CLR,0.00,VWS V14.01,2013-11-30 19:36:00,
2013-11-30 13:40:00,52.1,35.0,30.16,WSW,248,1.0,7.0,52,0.00,,CLR,0.00,VWS V14.01,2013-11-30 19:40:00,
2013-11-30 13:41:00,52.4,34.8,30.16,SW,214,3.0,5.0,51,0.00,,CLR,0.00,VWS V14.01,2013-11-30 19:41:00,
2013-11-30 13:46:00,52.2,35.1,30.15,SW,214,3.0,7.0,52,0.00,,CLR,0.00,VWS V14.01,2013-11-30 19:46:00,
2013-11-30 13:50:00,52.2,35.1,30.15,SW,233,4.0,7.0,52,0.00,,CLR,0.00,VWS V14.01,2013-11-30 19:50:00,
2013-11-30 13:51:00,52.1,34.5,30.15,SW,222,4.0,9.0,51,0.00,,CLR,0.00,VWS V14.01,2013-11-30 19:51:00,
2013-11-30 13:56:00,52.2,35.1,30.15,WSW,243,2.0,9.0,52,0.00,,CLR,0.00,VWS V14.01,2013-11-30 19:56:00,
2013-11-30 14:00:00,52.3,35.2,30.15,West,271,3.0,9.0,52,0.00,,CLR,0.00,VWS V14.01,2013-11-30 20:00:00,
2013-11-30 14:01:00,52.3,34.7,30.14,West,264,4.0,9.0,51,0.00,,CLR,0.00,VWS V14.01,2013-11-30 20:01:00,
2013-11-30 14:06:00,52.1,35.0,30.14,West,269,1.0,10.0,52,0.00,,CLR,0.00,VWS V14.01,2013-11-30 20:06:00,
2013-11-30 14:10:00,52.2,35.1,30.14,West,278,3.0,10.0,52,0.00,,CLR,0.00,VWS V14.01,2013-11-30 20:10:00,
2013-11-30 14:12:00,52.3,35.2,30.14,West,271,3.0,8.0,52,0.00,,CLR,0.00,VWS V14.01,2013-11-30 20:12:00,
2013-11-30 14:17:00,52.4,35.3,30.14,South,183,1.0,8.0,52,0.00,,CLR,0.00,VWS V14.01,2013-11-30 20:17:00,
2013-11-30 14:20:00,52.5,35.4,30.14,West,273,2.0,8.0,52,0.00,,CLR,0.00,VWS V14.01,2013-11-30 20:20:00,
2013-11-30 14:22:00,52.7,35.1,30.14,WSW,252,1.0,7.0,51,0.00,,CLR,0.00,VWS V14.01,2013-11-30 20:22:00,
2013-11-30 14:27:00,52.6,35.0,30.13,WSW,247,2.0,7.0,51,0.00,,CLR,0.00,VWS V14.01,2013-11-30 20:27:00,
2013-11-30 14:30:00,52.6,35.0,30.13,WSW,250,2.0,7.0,51,0.00,,CLR,0.00,VWS V14.01,2013-11-30 20:30:00,
2013-11-30 14:32:00,52.7,35.1,30.13,West,263,2.0,7.0,51,0.00,,CLR,0.00,VWS V14.01,2013-11-30 20:32:00,
2013-11-30 14:37:00,52.7,35.1,30.13,SW,222,3.0,7.0,51,0.00,,CLR,0.00,VWS V14.01,2013-11-30 20:37:00,
2013-11-30 14:40:00,52.8,35.2,30.13,WSW,238,2.0,7.0,51,0.00,,CLR,0.00,VWS V14.01,2013-11-30 20:40:00,
2013-11-30 14:42:00,52.8,35.2,30.13,South,191,2.0,7.0,51,0.00,,CLR,0.00,VWS V14.01,2013-11-30 20:42:00,
2013-11-30 14:47:00,52.8,35.2,30.13,SW,229,4.0,9.0,51,0.00,,CLR,0.00,VWS V14.01,2013-11-30 20:47:00,
2013-11-30 14:50:00,52.8,35.2,30.13,SW,217,4.0,9.0,51,0.00,,CLR,0.00,VWS V14.01,2013-11-30 20:50:00,
2013-11-30 14:52:00,52.5,34.9,30.12,WSW,238,4.0,10.0,51,0.00,,CLR,0.00,VWS V14.01,2013-11-30 20:52:00,
2013-11-30 14:57:00,52.4,35.3,30.12,South,179,3.0,11.0,52,0.00,,CLR,0.00,VWS V14.01,2013-11-30 20:57:00,
2013-11-30 15:00:00,52.4,35.3,30.12,SW,233,5.0,11.0,52,0.00,,CLR,0.00,VWS V14.01,2013-11-30 21:00:00,
2013-11-30 15:02:00,52.5,35.4,30.12,WSW,245,4.0,10.0,52,0.00,,CLR,0.00,VWS V14.01,2013-11-30 21:02:00,
2013-11-30 15:07:00,52.4,35.3,30.11,WSW,240,2.0,10.0,52,0.00,,CLR,0.00,VWS V14.01,2013-11-30 21:07:00,
2013-11-30 15:10:00,52.5,35.4,30.11,WSW,246,3.0,10.0,52,0.00,,CLR,0.00,VWS V14.01,2013-11-30 21:10:00,
2013-11-30 15:12:00,52.5,35.4,30.11,WSW,243,2.0,6.0,52,0.00,,CLR,0.00,VWS V14.01,2013-11-30 21:12:00,
2013-11-30 15:17:00,52.4,35.3,30.11,West,279,2.0,6.0,52,0.00,,CLR,0.00,VWS V14.01,2013-11-30 21:17:00,
2013-11-30 15:20:00,52.4,35.3,30.11,West,279,2.0,6.0,52,0.00,,CLR,0.00,VWS V14.01,2013-11-30 21:20:00,
2013-11-30 15:23:00,52.3,35.2,30.11,SW,225,2.0,3.0,52,0.00,,CLR,0.00,VWS V14.01,2013-11-30 21:23:00,
2013-11-30 15:28:00,52.4,35.3,30.11,South,186,2.0,2.0,52,0.00,,CLR,0.00,VWS V14.01,2013-11-30 21:28:00,
2013-11-30 15:30:00,52.4,35.3,30.11,SW,221,2.0,4.0,52,0.00,,CLR,0.00,VWS V14.01,2013-11-30 21:30:00,
2013-11-30 15:33:00,52.0,34.9,30.11,WSW,248,4.0,10.0,52,0.00,,CLR,0.00,VWS V14.01,2013-11-30 21:33:00,
2013-11-30 15:38:00,51.6,35.0,30.11,SSW,205,6.0,9.0,53,0.00,,CLR,0.00,VWS V14.01,2013-11-30 21:38:00,
2013-11-30 15:40:00,51.6,35.0,30.11,SW,221,3.0,10.0,53,0.00,,CLR,0.00,VWS V14.01,2013-11-30 21:40:00,
2013-11-30 15:43:00,51.3,35.2,30.11,WSW,256,1.0,9.0,54,0.00,,CLR,0.00,VWS V14.01,2013-11-30 21:43:00,
2013-11-30 15:48:00,51.1,35.0,30.11,South,181,4.0,4.0,54,0.00,,CLR,0.00,VWS V14.01,2013-11-30 21:48:00,
2013-11-30 15:50:00,51.2,35.1,30.11,WSW,243,1.0,9.0,54,0.00,,CLR,0.00,VWS V14.01,2013-11-30 21:50:00,
2013-11-30 15:53:00,51.0,35.0,30.11,WSW,249,2.0,5.0,54,0.00,,CLR,0.00,VWS V14.01,2013-11-30 21:53:00,
2013-11-30 15:58:00,50.8,34.8,30.11,SW,218,3.0,4.0,54,0.00,,CLR,0.00,VWS V14.01,2013-11-30 21:58:00,
2013-11-30 16:00:00,50.8,34.8,30.11,South,184,3.0,6.0,54,0.00,,CLR,0.00,VWS V14.01,2013-11-30 22:00:00,
2013-11-30 16:03:00,50.4,34.9,30.11,SSW,212,1.0,4.0,55,0.00,,CLR,0.00,VWS V14.01,2013-11-30 22:03:00,
2013-11-30 16:08:00,50.0,34.9,30.11,South,172,3.0,5.0,56,0.00,,CLR,0.00,VWS V14.01,2013-11-30 22:08:00,
2013-11-30 16:10:00,50.1,34.6,30.11,SSW,197,1.0,5.0,55,0.00,,CLR,0.00,VWS V14.01,2013-11-30 22:10:00,
2013-11-30 16:13:00,49.7,34.7,30.11,SW,232,1.0,6.0,56,0.00,,CLR,0.00,VWS V14.01,2013-11-30 22:13:00,
2013-11-30 16:18:00,49.5,34.5,30.11,WSW,239,1.0,3.0,56,0.00,,CLR,0.00,VWS V14.01,2013-11-30 22:18:00,
2013-11-30 16:20:00,49.5,34.5,30.11,SSW,212,1.0,6.0,56,0.00,,CLR,0.00,VWS V14.01,2013-11-30 22:20:00,
2013-11-30 16:23:00,49.1,34.5,30.12,SSW,203,1.0,3.0,57,0.00,,CLR,0.00,VWS V14.01,2013-11-30 22:23:00,
2013-11-30 16:28:00,48.8,34.7,30.12,SSW,212,0.0,2.0,58,0.00,,CLR,0.00,VWS V14.01,2013-11-30 22:28:00,
2013-11-30 16:30:00,48.9,34.3,30.12,SW,219,0.0,3.0,57,0.00,,CLR,0.00,VWS V14.01,2013-11-30 22:30:00,
2013-11-30 16:33:00,48.5,34.4,30.12,SW,217,0.0,2.0,58,0.00,,CLR,0.00,VWS V14.01,2013-11-30 22:33:00,
2013-11-30 16:39:00,48.0,34.4,30.12,SW,214,1.0,1.0,59,0.00,,CLR,0.00,VWS V14.01,2013-11-30 22:39:00,
2013-11-30 16:40:00,48.2,34.1,30.12,SW,215,0.0,2.0,58,0.00,,CLR,0.00,VWS V14.01,2013-11-30 22:40:00,
2013-11-30 16:44:00,47.7,34.5,30.12,WSW,240,0.0,2.0,60,0.00,,CLR,0.00,VWS V14.01,2013-11-30 22:44:00,
2013-11-30 16:49:00,47.3,34.1,30.12,WSW,240,0.0,1.0,60,0.00,,CLR,0.00,VWS V14.01,2013-11-30 22:49:00,
2013-11-30 16:50:00,47.3,34.1,30.12,WSW,240,0.0,2.0,60,0.00,,CLR,0.00,VWS V14.01,2013-11-30 22:50:00,
2013-11-30 16:54:00,47.0,34.3,30.12,WSW,249,0.0,1.0,61,0.00,,CLR,0.00,VWS V14.01,2013-11-30 22:54:00,
2013-11-30 16:59:00,46.8,34.9,30.12,West,259,1.0,2.0,63,0.00,,CLR,0.00,VWS V14.01,2013-11-30 22:59:00,
2013-11-30 17:00:00,46.8,34.5,30.12,WSW,252,0.0,3.0,62,0.00,,CLR,0.00,VWS V14.01,2013-11-30 23:00:00,
2013-11-30 17:04:00,46.8,34.9,30.13,SW,233,0.0,3.0,63,0.00,,CLR,0.00,VWS V14.01,2013-11-30 23:04:00,
2013-11-30 17:09:00,46.5,34.6,30.13,SSW,211,1.0,2.0,63,0.00,,CLR,0.00,VWS V14.01,2013-11-30 23:09:00,
2013-11-30 17:10:00,46.6,34.7,30.13,SW,234,0.0,3.0,63,0.00,,CLR,0.00,VWS V14.01,2013-11-30 23:10:00,
2013-11-30 17:14:00,46.1,34.2,30.12,SSW,212,1.0,3.0,63,0.00,,CLR,0.00,VWS V14.01,2013-11-30 23:14:00,
2013-11-30 17:19:00,45.7,34.6,30.13,SSW,198,0.0,1.0,65,0.00,,CLR,0.00,VWS V14.01,2013-11-30 23:19:00,
2013-11-30 17:20:00,45.8,34.3,30.13,SSW,201,1.0,3.0,64,0.00,,CLR,0.00,VWS V14.01,2013-11-30 23:20:00,
2013-11-30 17:24:00,45.4,34.3,30.13,South,191,0.0,1.0,65,0.00,,CLR,0.00,VWS V14.01,2013-11-30 23:24:00,
2013-11-30 17:29:00,45.2,34.5,30.14,SSW,208,0.0,1.0,66,0.00,,CLR,0.00,VWS V14.01,2013-11-30 23:29:00,
2013-11-30 17:30:00,45.3,34.6,30.13,South,191,0.0,1.0,66,0.00,,CLR,0.00,VWS V14.01,2013-11-30 23:30:00,
2013-11-30 17:34:00,45.3,34.6,30.14,SW,222,1.0,2.0,66,0.00,,CLR,0.00,VWS V14.01,2013-11-30 23:34:00,
2013-11-30 17:39:00,45.1,34.8,30.14,SW,230,1.0,1.0,67,0.00,,CLR,0.00,VWS V14.01,2013-11-30 23:39:00,
2013-11-30 17:40:00,45.2,34.5,30.14,SSW,201,0.0,2.0,66,0.00,,CLR,0.00,VWS V14.01,2013-11-30 23:40:00,
2013-11-30 17:44:00,45.3,35.0,30.14,SW,217,0.0,3.0,67,0.00,,CLR,0.00,VWS V14.01,2013-11-30 23:44:00,
2013-11-30 17:49:00,45.4,34.7,30.14,SW,217,0.0,0.0,66,0.00,,CLR,0.00,VWS V14.01,2013-11-30 23:49:00,
2013-11-30 17:50:00,45.4,35.1,30.14,SSW,211,0.0,3.0,67,0.00,,CLR,0.00,VWS V14.01,2013-11-30 23:50:00,
2013-11-30 17:54:00,45.1,34.8,30.14,SW,217,0.0,0.0,67,0.00,,CLR,0.00,VWS V14.01,2013-11-30 23:54:00,
2013-11-30 17:59:00,44.8,34.5,30.14,WSW,241,1.0,1.0,67,0.00,,CLR,0.00,VWS V14.01,2013-11-30 23:59:00,
2013-11-30 18:00:00,44.9,34.6,30.14,West,262,0.0,1.0,67,0.00,,CLR,0.00,VWS V14.01,2013-12-01 00:00:00,
2013-11-30 18:04:00,44.6,34.7,30.14,West,264,0.0,3.0,68,0.00,,CLR,0.00,VWS V14.01,2013-12-01 00:04:00,
2013-11-30 18:09:00,44.6,34.7,30.14,WSW,245,3.0,3.0,68,0.00,,CLR,0.00,VWS V14.01,2013-12-01 00:09:00,
2013-11-30 18:10:00,44.6,34.7,30.14,West,263,0.0,3.0,68,0.00,,CLR,0.00,VWS V14.01,2013-12-01 00:10:00,
2013-11-30 18:15:00,44.8,34.9,30.14,WSW,242,0.0,4.0,68,0.00,,CLR,0.00,VWS V14.01,2013-12-01 00:15:00,
2013-11-30 18:20:00,44.8,34.9,30.15,WSW,255,0.0,0.0,68,0.00,,CLR,0.00,VWS V14.01,2013-12-01 00:20:00,
2013-11-30 18:25:00,44.7,34.8,30.14,WSW,243,1.0,2.0,68,0.00,,CLR,0.00,VWS V14.01,2013-12-01 00:25:00,
2013-11-30 18:30:00,44.5,35.0,30.14,West,259,3.0,3.0,69,0.00,,CLR,0.00,VWS V14.01,2013-12-01 00:30:00,
2013-11-30 18:35:00,44.5,35.0,30.14,WSW,249,0.0,3.0,69,0.00,,CLR,0.00,VWS V14.01,2013-12-01 00:35:00,
2013-11-30 18:40:00,44.4,34.9,30.14,SW,233,0.0,3.0,69,0.00,,CLR,0.00,VWS V14.01,2013-12-01 00:40:00,
2013-11-30 18:45:00,44.1,34.6,30.14,WSW,255,0.0,3.0,69,0.00,,CLR,0.00,VWS V14.01,2013-12-01 00:45:00,
2013-11-30 18:50:00,43.7,34.6,30.14,WSW,255,0.0,1.0,70,0.00,,CLR,0.00,VWS V14.01,2013-12-01 00:50:00,
2013-11-30 18:55:00,43.5,34.7,30.14,WSW,252,0.0,1.0,71,0.00,,CLR,0.00,VWS V14.01,2013-12-01 00:55:00,
2013-11-30 19:00:00,43.1,34.3,30.14,WSW,252,0.0,0.0,71,0.00,,CLR,0.00,VWS V14.01,2013-12-01 01:00:00,
2013-11-30 19:05:00,42.9,34.5,30.14,WSW,252,0.0,1.0,72,0.00,,CLR,0.00,VWS V14.01,2013-12-01 01:05:00,
2013-11-30 19:10:00,42.9,34.8,30.14,WSW,252,0.0,1.0,73,0.00,,CLR,0.00,VWS V14.01,2013-12-01 01:10:00,
2013-11-30 19:15:00,43.1,34.7,30.14,West,262,0.0,1.0,72,0.00,,CLR,0.00,VWS V14.01,2013-12-01 01:15:00,
2013-11-30 19:20:00,43.1,34.7,30.14,West,270,0.0,2.0,72,0.00,,CLR,0.00,VWS V14.01,2013-12-01 01:20:00,
2013-11-30 19:25:00,42.9,34.5,30.14,West,267,0.0,2.0,72,0.00,,CLR,0.00,VWS V14.01,2013-12-01 01:25:00,
2013-11-30 19:30:00,42.5,34.5,30.14,West,267,0.0,0.0,73,0.00,,CLR,0.00,VWS V14.01,2013-12-01 01:30:00,
2013-11-30 19:35:00,42.3,34.6,30.14,SW,233,0.0,1.0,74,0.00,,CLR,0.00,VWS V14.01,2013-12-01 01:35:00,
2013-11-30 19:40:00,42.1,34.4,30.14,SW,233,0.0,1.0,74,0.00,,CLR,0.00,VWS V14.01,2013-12-01 01:40:00,
2013-11-30 19:43:00,42.1,34.4,30.14,SW,235,1.0,1.0,74,0.00,,CLR,0.00,VWS V14.01,2013-12-01 01:43:00,
2013-11-30 19:48:00,42.0,34.3,30.13,SW,235,0.0,1.0,74,0.00,,CLR,0.00,VWS V14.01,2013-12-01 01:48:00,
2013-11-30 19:50:00,42.0,34.3,30.13,SW,235,0.0,1.0,74,0.00,,CLR,0.00,VWS V14.01,2013-12-01 01:50:00,
2013-11-30 19:53:00,41.9,34.6,30.13,SW,235,0.0,1.0,75,0.00,,CLR,0.00,VWS V14.01,2013-12-01 01:53:00,
2013-11-30 19:58:00,41.7,34.4,30.13,SW,235,0.0,0.0,75,0.00,,CLR,0.00,VWS V14.01,2013-12-01 01:58:00,
2013-11-30 20:00:00,41.8,34.5,30.13,SW,235,0.0,1.0,75,0.00,,CLR,0.00,VWS V14.01,2013-12-01 02:00:00,
2013-11-30 20:03:00,41.6,34.3,30.13,SW,235,0.0,1.0,75,0.00,,CLR,0.00,VWS V14.01,2013-12-01 02:03:00,
2013-11-30 20:09:00,41.5,34.2,30.13,SW,235,0.0,0.0,75,0.00,,CLR,0.00,VWS V14.01,2013-12-01 02:09:00,
2013-11-30 20:10:00,41.6,34.3,30.14,SW,235,0.0,1.0,75,0.00,,CLR,0.00,VWS V14.01,2013-12-01 02:10:00,
2013-11-30 20:14:00,41.3,34.3,30.14,SW,235,0.0,0.0,76,0.00,,CLR,0.00,VWS V14.01,2013-12-01 02:14:00,
2013-11-30 20:19:00,41.0,34.0,30.13,SW,235,0.0,0.0,76,0.00,,CLR,0.00,VWS V14.01,2013-12-01 02:19:00,
2013-11-30 20:20:00,41.1,34.1,30.14,SW,235,0.0,0.0,76,0.00,,CLR,0.00,VWS V14.01,2013-12-01 02:20:00,
2013-11-30 20:24:00,40.8,34.2,30.13,SW,235,0.0,0.0,77,0.00,,CLR,0.00,VWS V14.01,2013-12-01 02:24:00,
2013-11-30 20:29:00,40.8,34.2,30.13,SW,235,0.0,0.0,77,0.00,,CLR,0.00,VWS V14.01,2013-12-01 02:29:00,
2013-11-30 20:30:00,40.8,34.2,30.14,SW,235,0.0,1.0,77,0.00,,CLR,0.00,VWS V14.01,2013-12-01 02:30:00,
2013-11-30 20:34:00,40.9,34.6,30.13,West,266,1.0,3.0,78,0.00,,CLR,0.00,VWS V14.01,2013-12-01 02:34:00,
2013-11-30 20:39:00,41.3,35.0,30.13,West,265,0.0,1.0,78,0.00,,CLR,0.00,VWS V14.01,2013-12-01 02:39:00,
2013-11-30 20:40:00,41.2,34.5,30.14,West,265,1.0,3.0,77,0.00,,CLR,0.00,VWS V14.01,2013-12-01 02:40:00,
2013-11-30 20:44:00,41.5,34.8,30.14,West,266,0.0,1.0,77,0.00,,CLR,0.00,VWS V14.01,2013-12-01 02:44:00,
2013-11-30 20:49:00,41.7,35.0,30.13,West,267,0.0,1.0,77,0.00,,CLR,0.00,VWS V14.01,2013-12-01 02:49:00,
2013-11-30 20:50:00,41.6,34.9,30.13,West,266,0.0,1.0,77,0.00,,CLR,0.00,VWS V14.01,2013-12-01 02:50:00,
2013-11-30 20:54:00,42.0,35.3,30.14,WSW,257,0.0,2.0,77,0.00,,CLR,0.00,VWS V14.01,2013-12-01 02:54:00,
2013-11-30 20:59:00,42.0,35.0,30.13,WSW,255,0.0,1.0,76,0.00,,CLR,0.00,VWS V14.01,2013-12-01 02:59:00,
2013-11-30 21:00:00,42.0,35.3,30.14,West,266,0.0,2.0,77,0.00,,CLR,0.00,VWS V14.01,2013-12-01 03:00:00,
2013-11-30 21:04:00,41.9,34.9,30.13,West,266,1.0,1.0,76,0.00,,CLR,0.00,VWS V14.01,2013-12-01 03:04:00,
2013-11-30 21:09:00,42.0,35.3,30.13,West,260,0.0,1.0,77,0.00,,CLR,0.00,VWS V14.01,2013-12-01 03:09:00,
2013-11-30 21:10:00,41.9,35.2,30.13,West,266,0.0,1.0,77,0.00,,CLR,0.00,VWS V14.01,2013-12-01 03:10:00,
2013-11-30 21:14:00,42.0,35.3,30.13,WSW,255,0.0,2.0,77,0.00,,CLR,0.00,VWS V14.01,2013-12-01 03:14:00,
2013-11-30 21:19:00,42.0,35.3,30.13,SW,231,0.0,1.0,77,0.00,,CLR,0.00,VWS V14.01,2013-12-01 03:19:00,
2013-11-30 21:20:00,42.0,35.3,30.13,West,259,1.0,2.0,77,0.00,,CLR,0.00,VWS V14.01,2013-12-01 03:20:00,
2013-11-30 21:24:00,41.9,35.2,30.13,WSW,249,0.0,1.0,77,0.00,,CLR,0.00,VWS V14.01,2013-12-01 03:24:00,
2013-11-30 21:29:00,41.8,35.1,30.13,WSW,249,0.0,1.0,77,0.00,,CLR,0.00,VWS V14.01,2013-12-01 03:29:00,
2013-11-30 21:30:00,41.9,35.2,30.13,WSW,249,0.0,1.0,77,0.00,,CLR,0.00,VWS V14.01,2013-12-01 03:30:00,
2013-11-30 21:34:00,41.8,35.1,30.13,West,262,1.0,2.0,77,0.00,,CLR,0.00,VWS V14.01,2013-12-01 03:34:00,
2013-11-30 21:40:00,41.9,35.2,30.13,West,260,1.0,1.0,77,0.00,,CLR,0.00,VWS V14.01,2013-12-01 03:40:00,
2013-11-30 21:45:00,41.9,35.2,30.13,West,259,0.0,3.0,77,0.00,,CLR,0.00,VWS V14.01,2013-12-01 03:45:00,
2013-11-30 21:50:00,41.8,35.1,30.13,WSW,250,1.0,1.0,77,0.00,,CLR,0.00,VWS V14.01,2013-12-01 03:50:00,
2013-11-30 21:55:00,41.5,34.8,30.13,WSW,250,0.0,1.0,77,0.00,,CLR,0.00,VWS V14.01,2013-12-01 03:55:00,
2013-11-30 22:00:00,41.3,35.0,30.13,West,274,0.0,1.0,78,0.00,,CLR,0.00,VWS V14.01,2013-12-01 04:00:00,
2013-11-30 22:05:00,41.0,34.7,30.13,West,274,0.0,1.0,78,0.00,,CLR,0.00,VWS V14.01,2013-12-01 04:05:00,
2013-11-30 22:10:00,40.7,34.7,30.13,West,274,0.0,0.0,79,0.00,,CLR,0.00,VWS V14.01,2013-12-01 04:10:00,
2013-11-30 22:15:00,40.5,34.8,30.13,West,274,0.0,0.0,80,0.00,,CLR,0.00,VWS V14.01,2013-12-01 04:15:00,
2013-11-30 22:20:00,40.4,34.7,30.13,WSW,255,1.0,1.0,80,0.00,,CLR,0.00,VWS V14.01,2013-12-01 04:20:00,
2013-11-30 22:25:00,40.4,34.7,30.13,West,260,0.0,1.0,80,0.00,,CLR,0.00,VWS V14.01,2013-12-01 04:25:00,
2013-11-30 22:30:00,40.4,34.7,30.13,West,260,0.0,0.0,80,0.00,,CLR,0.00,VWS V14.01,2013-12-01 04:30:00,
2013-11-30 22:35:00,40.2,34.5,30.13,West,260,0.0,0.0,80,0.00,,CLR,0.00,VWS V14.01,2013-12-01 04:35:00,
2013-11-30 22:40:00,39.9,34.5,30.13,West,260,0.0,0.0,81,0.00,,CLR,0.00,VWS V14.01,2013-12-01 04:40:00,
2013-11-30 22:45:00,39.9,34.5,30.13,West,260,0.0,1.0,81,0.00,,CLR,0.00,VWS V14.01,2013-12-01 04:45:00,
2013-11-30 22:50:00,39.9,34.5,30.13,WSW,255,0.0,0.0,81,0.00,,CLR,0.00,VWS V14.01,2013-12-01 04:50:00,
2013-11-30 22:56:00,39.7,34.4,30.13,WSW,255,0.0,0.0,81,0.00,,CLR,0.00,VWS V14.01,2013-12-01 04:56:00,
2013-11-30 23:00:00,39.7,34.7,30.13,WSW,255,0.0,0.0,82,0.00,,CLR,0.00,VWS V14.01,2013-12-01 05:00:00,
2013-11-30 23:01:00,39.6,34.6,30.13,WSW,255,0.0,0.0,82,0.00,,CLR,0.00,VWS V14.01,2013-12-01 05:01:00,
2013-11-30 23:02:00,39.6,34.6,30.13,WSW,255,0.0,0.0,82,0.00,,CLR,0.00,VWS V14.01,2013-12-01 05:02:00,
2013-11-30 23:03:00,39.5,34.5,30.13,WSW,255,0.0,0.0,82,0.00,,CLR,0.00,VWS V14.01,2013-12-01 05:03:00,
2013-11-30 23:08:00,39.3,34.3,30.13,WSW,255,0.0,0.0,82,0.00,,CLR,0.00,VWS V14.01,2013-12-01 05:08:00,
2013-11-30 23:10:00,39.4,34.4,30.13,WSW,255,0.0,0.0,82,0.00,,CLR,0.00,VWS V14.01,2013-12-01 05:10:00,
2013-11-30 23:13:00,39.3,34.6,30.12,WSW,255,0.0,1.0,83,0.00,,CLR,0.00,VWS V14.01,2013-12-01 05:13:00,
2013-11-30 23:18:00,39.3,34.6,30.13,WSW,255,0.0,0.0,83,0.00,,CLR,0.00,VWS V14.01,2013-12-01 05:18:00,
2013-11-30 23:20:00,39.3,34.6,30.13,WSW,255,0.0,1.0,83,0.00,,CLR,0.00,VWS V14.01,2013-12-01 05:20:00,
2013-11-30 23:23:00,39.3,34.6,30.13,WSW,255,0.0,0.0,83,0.00,,CLR,0.00,VWS V14.01,2013-12-01 05:23:00,
2013-11-30 23:29:00,39.5,34.8,30.12,WSW,255,0.0,0.0,83,0.00,,CLR,0.00,VWS V14.01,2013-12-01 05:29:00,
2013-11-30 23:30:00,39.4,34.7,30.12,WSW,255,0.0,0.0,83,0.00,,CLR,0.00,VWS V14.01,2013-12-01 05:30:00,
2013-11-30 23:34:00,39.4,34.7,30.12,WSW,255,0.0,1.0,83,0.00,,CLR,0.00,VWS V14.01,2013-12-01 05:34:00,
2013-11-30 23:39:00,39.5,34.8,30.12,WSW,255,0.0,0.0,83,0.00,,CLR,0.00,VWS V14.01,2013-12-01 05:39:00,
2013-11-30 23:40:00,39.5,34.8,30.13,WSW,255,0.0,1.0,83,0.00,,CLR,0.00,VWS V14.01,2013-12-01 05:40:00,
2013-11-30 23:44:00,39.4,34.7,30.12,WSW,255,0.0,0.0,83,0.00,,CLR,0.00,VWS V14.01,2013-12-01 05:44:00,
2013-11-30 23:49:00,39.3,34.6,30.12,WSW,255,0.0,0.0,83,0.00,,CLR,0.00,VWS V14.01,2013-12-01 05:49:00,
2013-11-30 23:50:00,39.3,34.6,30.12,WSW,255,0.0,0.0,83,0.00,,OVC080,0.00,VWS V14.01,2013-12-01 05:50:00,
2013-11-30 23:54:00,39.3,34.6,30.12,WSW,255,0.0,0.0,83,0.00,,CLR,0.00,VWS V14.01,2013-12-01 05:54:00,
2013-11-30 23:59:00,39.3,34.9,30.12,WSW,255,0.0,0.0,84,0.00,,CLR,0.00,VWS V14.01,2013-12-01 05:59:00,